Regional Weather Roundup
Issued by NWS Tiyan, Guam

Home | Current Version | Previous Version | Text Only | Print | Product List | Glossary On
Versions: 1 2 3 4 5 6 7 8 9 10 11 12 13 14 15 16 17 18 19 20 21 22 23 24 25 26 27 28 29 30 31 32 33 34 35 36 37 38 39 40 41 42 43 44
000
ASGM40 PGUM 280512
RWRGUM
WEATHER ROUNDUP FOR THE MARIANAS
NATIONAL WEATHER SERVICE TIYAN GU
300 PM CHST SUN DEC 28 2014

GUZ001>004-280600-
MARIANA ISLANDS-

CITY           SKY/WX    TMP DP  RH WIND       PRES   REMARKS
GUAM AIRPORT   CLOUDY    84  75  74 E14       29.80F HX  92
ANDERSEN AFB   PTSUNNY   82  75  78 E14       29.80F
ROTA AIRPORT   MOSUNNY   84  73  70 E15       29.82S HX  91
TINIAN AP      MOSUNNY   84  73  70 E13       29.80F HX  91
SAIPAN AP      MOSUNNY   84  73  70 E18       29.81F HX  91

$$



USA.gov is the U.S. government's official web portal to all federal, state and local government web resources and services.